APJ508 ROAH-RJAA

Flight info

Callsign APJ508
Flight time 2h 43m
Altitude 35000
Route AMAMI Y574 SHIBK Y57 YULIA Y89 GUPER Y81 RUTAS
Aircraft A20N/M-SDE2E3FGHIRWXY/LB1

Departure

Time 2026-04-24 01:59
Airport Naha International Airport (ROAH)

Arrival

Time 2026-04-24 04:42
Airport Narita International Airport (RJAA)
Time Latitude Longitude Altitude Speed Heading
2026-04-24 01:48 26.20668 127.64957 37 ft 3 kts 35°
2026-04-24 01:48 26.20652 127.64949 28 ft 3 kts 345°
2026-04-24 01:49 26.20639 127.64958 28 ft 3 kts 283°
2026-04-24 01:49 26.20638 127.64971 28 ft 2 kts 268°
2026-04-24 01:49 26.20638 127.64988 28 ft 1 kts 268°
2026-04-24 01:49 26.20638 127.64990 28 ft 0 kts 268°
2026-04-24 01:53 26.20638 127.64986 28 ft 2 kts 268°
2026-04-24 01:53 26.20637 127.64949 28 ft 8 kts 268°
2026-04-24 01:53 26.20634 127.64863 28 ft 14 kts 268°
2026-04-24 01:54 26.20596 127.64758 28 ft 17 kts 209°
2026-04-24 01:54 26.20457 127.64752 28 ft 23 kts 177°
2026-04-24 01:54 26.20284 127.64759 28 ft 26 kts 178°
2026-04-24 01:54 26.20109 127.64767 28 ft 25 kts 177°
2026-04-24 01:55 26.19933 127.64778 28 ft 25 kts 176°
2026-04-24 01:55 26.19764 127.64789 28 ft 24 kts 176°
2026-04-24 01:55 26.19600 127.64797 28 ft 23 kts 179°
2026-04-24 01:55 26.19442 127.64800 28 ft 22 kts 179°
2026-04-24 01:56 26.19288 127.64810 28 ft 22 kts 176°
2026-04-24 01:56 26.19136 127.64819 28 ft 22 kts 177°
2026-04-24 01:56 26.18985 127.64826 28 ft 22 kts 178°
2026-04-24 01:56 26.18831 127.64833 28 ft 23 kts 178°
2026-04-24 01:57 26.18673 127.64839 28 ft 23 kts 178°
2026-04-24 01:57 26.18507 127.64844 28 ft 24 kts 178°
2026-04-24 01:57 26.18332 127.64851 28 ft 26 kts 178°
2026-04-24 01:57 26.18244 127.64798 28 ft 9 kts 269°
2026-04-24 01:58 26.18243 127.64717 31 ft 12 kts 269°
2026-04-24 01:58 26.18285 127.64646 25 ft 12 kts 349°
2026-04-24 01:58 26.18305 127.64645 27 ft 8 kts 356°
2026-04-24 01:58 26.18609 127.64631 27 ft 78 kts 358°
2026-04-24 01:59 26.19344 127.64598 27 ft 131 kts 358°
2026-04-24 01:59 26.20332 127.64551 369 ft 145 kts 356°
2026-04-24 01:59 26.21359 127.64500 926 ft 152 kts 357°
2026-04-24 01:59 26.22436 127.64442 1417 ft 157 kts 356°
2026-04-24 02:00 26.23530 127.64382 1984 ft 158 kts 356°
2026-04-24 02:00 26.24690 127.64321 2311 ft 179 kts 355°
2026-04-24 02:00 26.25982 127.64067 2553 ft 201 kts 335°
2026-04-24 02:00 26.27164 127.63226 3101 ft 196 kts 313°
2026-04-24 02:01 26.28169 127.62091 3537 ft 218 kts 322°
2026-04-24 02:01 26.29571 127.61277 3944 ft 242 kts 333°
2026-04-24 02:01 26.31193 127.60529 4458 ft 261 kts 333°
2026-04-24 02:01 26.32871 127.59677 5228 ft 266 kts 330°
2026-04-24 02:02 26.34524 127.58733 6139 ft 269 kts 328°
2026-04-24 02:02 26.36176 127.57717 6923 ft 273 kts 326°
2026-04-24 02:02 26.37830 127.56660 7711 ft 275 kts 324°
2026-04-24 02:02 26.39473 127.55553 8479 ft 275 kts 317°
2026-04-24 02:03 26.41256 127.52031 9982 ft 264 kts 272°
2026-04-24 02:03 26.41077 127.49981 10424 ft 276 kts 252°
2026-04-24 02:03 26.40087 127.48054 10612 ft 300 kts 232°
2026-04-24 02:04 26.38667 127.46240 10939 ft 316 kts 231°
2026-04-24 02:04 26.37191 127.44395 11613 ft 320 kts 231°
2026-04-24 02:04 26.35639 127.42592 12264 ft 327 kts 223°
2026-04-24 02:04 26.33635 127.41313 12911 ft 340 kts 204°
2026-04-24 02:05 26.31258 127.40858 13550 ft 356 kts 185°
2026-04-24 02:05 26.28807 127.40890 14303 ft 359 kts 185°
2026-04-24 02:05 26.26289 127.40933 14853 ft 363 kts 184°
2026-04-24 02:05 26.23758 127.40971 15496 ft 365 kts 184°
2026-04-24 02:06 26.21213 127.41004 16101 ft 367 kts 184°
2026-04-24 02:06 26.18648 127.41033 16691 ft 369 kts 184°
2026-04-24 02:06 26.16065 127.41200 17250 ft 377 kts 173°
2026-04-24 02:06 26.13559 127.42153 17802 ft 388 kts 156°
2026-04-24 02:07 26.11359 127.43948 18362 ft 398 kts 138°
2026-04-24 02:07 26.09671 127.46437 18772 ft 410 kts 121°
2026-04-24 02:07 26.08652 127.49428 19183 ft 420 kts 104°
2026-04-24 02:07 26.08398 127.52689 19577 ft 428 kts 88°
2026-04-24 02:08 26.08914 127.55969 19982 ft 434 kts 75°
2026-04-24 02:08 26.09789 127.59209 20399 ft 439 kts 73°
2026-04-24 02:08 26.10645 127.62444 20808 ft 443 kts 75°
2026-04-24 02:08 26.11416 127.65778 21238 ft 448 kts 77°
2026-04-24 02:09 26.12110 127.69176 21656 ft 452 kts 78°
2026-04-24 02:09 26.12759 127.72611 22070 ft 456 kts 79°
2026-04-24 02:09 26.13393 127.76082 22464 ft 460 kts 79°
2026-04-24 02:09 26.14024 127.79579 22864 ft 464 kts 80°
2026-04-24 02:10 26.14662 127.83122 23258 ft 467 kts 80°
2026-04-24 02:10 26.15304 127.86679 23620 ft 471 kts 80°
2026-04-24 02:10 26.15956 127.90255 23955 ft 474 kts 78°
2026-04-24 02:10 26.17027 127.93735 24283 ft 477 kts 64°
2026-04-24 02:11 26.18761 127.96875 24589 ft 478 kts 49°
2026-04-24 02:11 26.21071 127.99521 24899 ft 476 kts 36°
2026-04-24 02:11 26.23822 128.01540 25205 ft 472 kts 23°
2026-04-24 02:11 26.26773 128.03154 25510 ft 473 kts 21°
2026-04-24 02:12 26.29745 128.04779 25819 ft 477 kts 22°
2026-04-24 02:12 26.32683 128.06528 26132 ft 481 kts 25°
2026-04-24 02:12 26.35596 128.08386 26425 ft 484 kts 26°
2026-04-24 02:12 26.38501 128.10317 26715 ft 487 kts 27°
2026-04-24 02:13 26.41413 128.12285 26997 ft 490 kts 27°
2026-04-24 02:13 26.44291 128.14243 27312 ft 493 kts 27°
2026-04-24 02:13 26.47235 128.16247 27700 ft 496 kts 27°
2026-04-24 02:13 26.50195 128.18262 28011 ft 500 kts 27°
2026-04-24 02:14 26.53170 128.20286 28285 ft 502 kts 27°
2026-04-24 02:14 26.56166 128.22324 28550 ft 505 kts 27°
2026-04-24 02:14 26.59172 128.24370 28803 ft 507 kts 27°
2026-04-24 02:14 26.62194 128.26429 29072 ft 509 kts 27°
2026-04-24 02:15 26.65217 128.28513 29299 ft 513 kts 30°
2026-04-24 02:15 26.68081 128.30939 29532 ft 520 kts 38°
2026-04-24 02:15 26.70676 128.33785 29798 ft 526 kts 46°
2026-04-24 02:15 26.72999 128.36972 30083 ft 530 kts 50°
2026-04-24 02:16 26.75290 128.40205 30366 ft 531 kts 50°
2026-04-24 02:16 26.77599 128.43449 30610 ft 533 kts 50°
2026-04-24 02:16 26.79914 128.46700 30820 ft 535 kts 50°
2026-04-24 02:16 26.82237 128.49969 31043 ft 537 kts 50°
2026-04-24 02:17 26.84563 128.53246 31315 ft 538 kts 50°
2026-04-24 02:17 26.86895 128.56535 31617 ft 537 kts 50°
2026-04-24 02:17 26.89215 128.59813 31899 ft 537 kts 49°
2026-04-24 02:17 26.91602 128.62955 32172 ft 535 kts 42°
2026-04-24 02:18 26.94356 128.65722 32439 ft 530 kts 33°
2026-04-24 02:18 26.97405 128.68018 32694 ft 524 kts 24°
2026-04-24 02:18 27.00607 128.69956 32963 ft 522 kts 22°
2026-04-24 02:18 27.03803 128.71890 33238 ft 522 kts 22°
2026-04-24 02:19 27.06997 128.73831 33496 ft 522 kts 22°
2026-04-24 02:19 27.10191 128.75773 33749 ft 522 kts 22°
2026-04-24 02:19 27.13383 128.77715 33984 ft 521 kts 22°
2026-04-24 02:19 27.16569 128.79653 34202 ft 521 kts 22°
2026-04-24 02:20 27.19754 128.81590 34410 ft 520 kts 22°
2026-04-24 02:20 27.22937 128.83527 34607 ft 520 kts 22°
2026-04-24 02:20 27.26123 128.85467 34797 ft 520 kts 22°
2026-04-24 02:20 27.29309 128.87409 34922 ft 520 kts 22°
2026-04-24 02:21 27.35667 128.91288 34944 ft 519 kts 22°
2026-04-24 02:21 27.41989 128.95149 34947 ft 521 kts 22°
2026-04-24 02:22 27.48365 128.99049 34946 ft 520 kts 22°
2026-04-24 02:22 27.54717 129.02941 34950 ft 520 kts 22°
2026-04-24 02:23 27.61096 129.06851 34953 ft 522 kts 22°
2026-04-24 02:23 27.67488 129.10775 34956 ft 523 kts 22°
2026-04-24 02:24 27.73871 129.14702 34954 ft 521 kts 21°
2026-04-24 02:24 27.80249 129.18628 34952 ft 523 kts 21°
2026-04-24 02:25 27.86604 129.22546 34950 ft 523 kts 21°
2026-04-24 02:25 27.92999 129.26494 34948 ft 523 kts 21°
2026-04-24 02:26 27.99395 129.30448 34945 ft 524 kts 21°
2026-04-24 02:26 28.05794 129.34410 34945 ft 524 kts 21°
2026-04-24 02:27 28.12170 129.38361 34940 ft 525 kts 21°
2026-04-24 02:27 28.18580 129.42340 34946 ft 525 kts 21°
2026-04-24 02:28 28.25000 129.46331 34931 ft 526 kts 21°
2026-04-24 02:28 28.31414 129.50324 34929 ft 527 kts 21°
2026-04-24 02:29 28.37781 129.54379 34919 ft 531 kts 27°
2026-04-24 02:29 28.40696 129.57012 34915 ft 542 kts 40°
2026-04-24 02:29 28.43204 129.60263 34913 ft 550 kts 51°
2026-04-24 02:30 28.45186 129.63998 34909 ft 553 kts 64°
2026-04-24 02:30 28.46563 129.68078 34913 ft 554 kts 76°
2026-04-24 02:30 28.47289 129.72364 34913 ft 551 kts 88°
2026-04-24 02:30 28.47409 129.76702 34913 ft 548 kts 95°
2026-04-24 02:31 28.47532 129.85369 34923 ft 551 kts 90°
2026-04-24 02:31 28.48233 129.94067 34917 ft 552 kts 86°
2026-04-24 02:32 28.49149 130.02718 34917 ft 551 kts 85°
2026-04-24 02:32 28.50294 130.11327 34921 ft 553 kts 75°
2026-04-24 02:33 28.51554 130.15449 34925 ft 553 kts 64°
2026-04-24 02:33 28.53369 130.19299 34925 ft 551 kts 53°
2026-04-24 02:33 28.57715 130.26463 34925 ft 550 kts 52°
2026-04-24 02:34 28.62050 130.33624 34924 ft 550 kts 52°
2026-04-24 02:34 28.66352 130.40751 34923 ft 550 kts 52°
2026-04-24 02:35 28.70679 130.47930 34919 ft 550 kts 52°
2026-04-24 02:35 28.75005 130.55117 34918 ft 550 kts 52°
2026-04-24 02:36 28.79329 130.62305 34914 ft 550 kts 52°
2026-04-24 02:36 28.83657 130.69509 34922 ft 550 kts 52°
2026-04-24 02:37 28.87982 130.76720 34918 ft 551 kts 52°
2026-04-24 02:37 28.92308 130.83947 34921 ft 551 kts 52°
2026-04-24 02:38 28.96600 130.91132 34924 ft 551 kts 52°
2026-04-24 02:38 29.00913 130.98362 34918 ft 551 kts 52°
2026-04-24 02:39 29.05223 131.05599 34914 ft 551 kts 52°
2026-04-24 02:39 29.09536 131.12855 34911 ft 551 kts 52°
2026-04-24 02:40 29.13141 131.18930 34911 ft 551 kts 52°
2026-04-24 02:40 29.17423 131.26156 34909 ft 552 kts 52°
2026-04-24 02:41 29.21727 131.33433 34906 ft 552 kts 52°
2026-04-24 02:41 29.26029 131.40718 34907 ft 552 kts 52°
2026-04-24 02:42 29.30328 131.48012 34909 ft 552 kts 52°
2026-04-24 02:42 29.34624 131.55314 34902 ft 552 kts 52°
2026-04-24 02:43 29.38895 131.62587 34901 ft 553 kts 53°
2026-04-24 02:43 29.43183 131.69907 34904 ft 553 kts 53°
2026-04-24 02:44 29.47471 131.77241 34906 ft 553 kts 53°
2026-04-24 02:44 29.51756 131.84581 34911 ft 553 kts 53°
2026-04-24 02:45 29.56022 131.91902 34891 ft 550 kts 53°
2026-04-24 02:45 29.60277 131.99217 34895 ft 551 kts 53°
2026-04-24 02:46 29.64534 132.06546 34900 ft 551 kts 53°
2026-04-24 02:46 29.69255 132.13441 34898 ft 547 kts 46°
2026-04-24 02:47 29.74056 132.20168 34885 ft 547 kts 46°
2026-04-24 02:47 29.78885 132.26952 34885 ft 548 kts 46°
2026-04-24 02:48 29.83714 132.33746 34893 ft 548 kts 46°
2026-04-24 02:48 29.88538 132.40545 34890 ft 548 kts 46°
2026-04-24 02:49 29.93361 132.47353 34886 ft 548 kts 46°
2026-04-24 02:49 29.98183 132.54173 34888 ft 548 kts 46°
2026-04-24 02:50 30.02974 132.60958 34894 ft 548 kts 47°
2026-04-24 02:50 30.07792 132.67794 34887 ft 549 kts 47°
2026-04-24 02:51 30.12614 132.74647 34886 ft 549 kts 47°
2026-04-24 02:51 30.17433 132.81507 34885 ft 549 kts 47°
2026-04-24 02:52 30.22252 132.88380 34883 ft 550 kts 47°
2026-04-24 02:52 30.27048 132.95232 34882 ft 550 kts 47°
2026-04-24 02:53 30.31862 133.02121 34884 ft 550 kts 47°
2026-04-24 02:53 30.36683 133.09033 34881 ft 551 kts 47°
2026-04-24 02:54 30.41495 133.15944 34879 ft 551 kts 47°
2026-04-24 02:54 30.46268 133.22811 34882 ft 551 kts 47°
2026-04-24 02:55 30.51076 133.29739 34884 ft 551 kts 47°
2026-04-24 02:55 30.55880 133.36676 34876 ft 551 kts 47°
2026-04-24 02:56 30.60681 133.43618 34877 ft 551 kts 47°
2026-04-24 02:56 30.65477 133.50567 34874 ft 551 kts 47°
2026-04-24 02:57 30.70242 133.57483 34872 ft 551 kts 47°
2026-04-24 02:57 30.75038 133.64456 34869 ft 552 kts 47°
2026-04-24 02:58 30.79821 133.71421 34859 ft 552 kts 47°
2026-04-24 02:58 30.84621 133.78423 34866 ft 552 kts 47°
2026-04-24 02:59 30.89411 133.85421 34865 ft 552 kts 47°
2026-04-24 02:59 30.94198 133.92425 34866 ft 553 kts 47°
2026-04-24 03:00 30.98959 133.99404 34858 ft 553 kts 47°
2026-04-24 03:00 31.03744 134.06431 34867 ft 554 kts 47°
2026-04-24 03:01 31.08536 134.13481 34863 ft 554 kts 48°
2026-04-24 03:01 31.13331 134.20548 34867 ft 555 kts 48°
2026-04-24 03:02 31.18119 134.27618 34865 ft 555 kts 48°
2026-04-24 03:02 31.22885 134.34668 34869 ft 556 kts 48°
2026-04-24 03:03 31.27679 134.41774 34879 ft 557 kts 48°
2026-04-24 03:03 31.32473 134.48892 34878 ft 557 kts 48°
2026-04-24 03:04 31.37266 134.56021 34884 ft 557 kts 48°
2026-04-24 03:04 31.42064 134.63171 34885 ft 558 kts 48°
2026-04-24 03:05 31.46858 134.70329 34889 ft 558 kts 48°
2026-04-24 03:05 31.51642 134.77484 34890 ft 558 kts 48°
2026-04-24 03:06 31.56402 134.84617 34889 ft 558 kts 48°
2026-04-24 03:06 31.61190 134.91806 34883 ft 558 kts 48°
2026-04-24 03:07 31.65971 134.98997 34879 ft 559 kts 48°
2026-04-24 03:07 31.70748 135.06195 34877 ft 559 kts 49°
2026-04-24 03:08 31.77214 135.17597 34880 ft 562 kts 54°
2026-04-24 03:09 31.81485 135.25285 34881 ft 562 kts 54°
2026-04-24 03:09 31.85758 135.33007 34884 ft 562 kts 54°
2026-04-24 03:10 31.90017 135.40725 34884 ft 562 kts 54°
2026-04-24 03:10 31.94269 135.48448 34887 ft 562 kts 54°
2026-04-24 03:11 31.98522 135.56189 34887 ft 563 kts 54°
2026-04-24 03:11 32.02749 135.63896 34888 ft 563 kts 54°
2026-04-24 03:12 32.06993 135.71651 34896 ft 563 kts 54°
2026-04-24 03:12 32.11234 135.79417 34894 ft 563 kts 54°
2026-04-24 03:13 32.15469 135.87188 34899 ft 563 kts 54°
2026-04-24 03:13 32.19700 135.94967 34904 ft 563 kts 54°
2026-04-24 03:14 32.23926 136.02752 34908 ft 563 kts 54°
2026-04-24 03:14 32.28146 136.10541 34906 ft 562 kts 54°
2026-04-24 03:15 32.32358 136.18328 34905 ft 562 kts 54°
2026-04-24 03:15 32.36567 136.26109 34906 ft 562 kts 54°
2026-04-24 03:16 32.40751 136.33862 34903 ft 562 kts 54°
2026-04-24 03:16 32.44955 136.41673 34902 ft 562 kts 54°
2026-04-24 03:17 32.49149 136.49481 34898 ft 562 kts 54°
2026-04-24 03:17 32.53342 136.57303 34902 ft 562 kts 54°
2026-04-24 03:18 32.57530 136.65133 34900 ft 562 kts 54°
2026-04-24 03:18 32.61715 136.72973 34902 ft 562 kts 54°
2026-04-24 03:19 32.65900 136.80830 34912 ft 563 kts 54°
2026-04-24 03:19 32.70081 136.88697 34915 ft 563 kts 54°
2026-04-24 03:20 32.74230 136.96518 34910 ft 564 kts 54°
2026-04-24 03:20 32.78419 137.04434 34913 ft 564 kts 54°
2026-04-24 03:21 32.82593 137.12336 34918 ft 565 kts 54°
2026-04-24 03:21 32.86775 137.20270 34921 ft 566 kts 54°
2026-04-24 03:22 32.90953 137.28215 34927 ft 566 kts 54°
2026-04-24 03:22 32.95103 137.36122 34930 ft 566 kts 55°
2026-04-24 03:23 32.99270 137.44081 34923 ft 565 kts 55°
2026-04-24 03:23 33.03418 137.52020 34925 ft 564 kts 55°
2026-04-24 03:24 33.07565 137.59973 34928 ft 565 kts 55°
2026-04-24 03:24 33.11714 137.67947 34931 ft 565 kts 55°
2026-04-24 03:25 33.15831 137.75878 34928 ft 566 kts 55°
2026-04-24 03:25 33.19971 137.83868 34932 ft 566 kts 55°
2026-04-24 03:26 33.24107 137.91869 34934 ft 566 kts 55°
2026-04-24 03:26 33.28248 137.99898 34932 ft 567 kts 55°
2026-04-24 03:27 33.32386 138.07940 34936 ft 567 kts 55°
2026-04-24 03:27 33.36523 138.15996 34937 ft 568 kts 55°
2026-04-24 03:28 33.40652 138.24053 34938 ft 568 kts 55°
2026-04-24 03:28 33.44761 138.32083 34938 ft 568 kts 55°
2026-04-24 03:29 33.48880 138.40152 34940 ft 568 kts 55°
2026-04-24 03:29 33.52313 138.46890 34938 ft 568 kts 55°
2026-04-24 03:30 33.57101 138.56305 34935 ft 569 kts 56°
2026-04-24 03:30 33.60552 138.63106 34936 ft 569 kts 56°
2026-04-24 03:31 33.64664 138.71226 34935 ft 569 kts 56°
2026-04-24 03:31 33.68745 138.79304 34927 ft 570 kts 56°
2026-04-24 03:32 33.72859 138.87465 34939 ft 570 kts 56°
2026-04-24 03:32 33.76970 138.95639 34930 ft 571 kts 56°
2026-04-24 03:33 33.81077 139.03820 34933 ft 571 kts 56°
2026-04-24 03:33 33.85164 139.11980 34936 ft 572 kts 56°
2026-04-24 03:34 33.89269 139.20197 34943 ft 573 kts 56°
2026-04-24 03:34 33.93375 139.28432 34943 ft 573 kts 56°
2026-04-24 03:35 33.97476 139.36677 34949 ft 574 kts 56°
2026-04-24 03:35 34.01578 139.44943 34946 ft 575 kts 56°
2026-04-24 03:36 34.05659 139.53190 34946 ft 562 kts 56°
2026-04-24 03:36 34.07603 139.57134 34946 ft 546 kts 57°
2026-04-24 03:36 34.09210 139.61217 34945 ft 532 kts 71°
2026-04-24 03:36 34.10068 139.65491 34947 ft 521 kts 88°
2026-04-24 03:37 34.10145 139.69835 34945 ft 515 kts 103°
2026-04-24 03:37 34.09459 139.74015 34941 ft 503 kts 119°
2026-04-24 03:37 34.08082 139.77808 34940 ft 484 kts 134°
2026-04-24 03:37 34.06142 139.80985 34936 ft 457 kts 149°
2026-04-24 03:38 34.03843 139.83478 34936 ft 435 kts 159°
2026-04-24 03:38 34.01361 139.85441 34932 ft 418 kts 168°
2026-04-24 03:38 33.98788 139.86910 34932 ft 401 kts 176°
2026-04-24 03:38 33.96173 139.87891 34928 ft 385 kts 184°
2026-04-24 03:39 33.93579 139.88392 34932 ft 370 kts 192°
2026-04-24 03:39 33.91088 139.88443 34927 ft 357 kts 199°
2026-04-24 03:39 33.88670 139.88087 34919 ft 344 kts 206°
2026-04-24 03:40 33.84265 139.86314 34924 ft 325 kts 218°
2026-04-24 03:40 33.80574 139.83403 34920 ft 312 kts 229°
2026-04-24 03:41 33.77685 139.79635 34921 ft 303 kts 240°
2026-04-24 03:41 33.75498 139.75364 34919 ft 302 kts 243°
2026-04-24 03:42 33.73327 139.71035 34920 ft 302 kts 243°
2026-04-24 03:42 33.71142 139.66710 34921 ft 303 kts 243°
2026-04-24 03:43 33.68954 139.62380 34921 ft 303 kts 243°
2026-04-24 03:43 33.66764 139.58043 34922 ft 304 kts 243°
2026-04-24 03:44 33.64698 139.53635 34921 ft 302 kts 247°
2026-04-24 03:44 33.63301 139.48894 34922 ft 302 kts 256°
2026-04-24 03:45 33.62860 139.43872 34923 ft 305 kts 266°
2026-04-24 03:45 33.63461 139.38802 34923 ft 314 kts 277°
2026-04-24 03:46 33.65146 139.33862 34928 ft 328 kts 288°
2026-04-24 03:46 33.67966 139.29368 34929 ft 349 kts 301°
2026-04-24 03:46 33.69815 139.27405 34932 ft 361 kts 308°
2026-04-24 03:47 33.71954 139.25713 34934 ft 376 kts 316°
2026-04-24 03:47 33.74374 139.24362 34935 ft 392 kts 324°
2026-04-24 03:47 33.77058 139.23432 34940 ft 410 kts 333°
2026-04-24 03:47 33.79954 139.23015 34940 ft 430 kts 343°
2026-04-24 03:48 33.83014 139.23199 34941 ft 451 kts 354°
2026-04-24 03:48 33.86140 139.24068 34942 ft 472 kts
2026-04-24 03:48 33.89206 139.25685 34947 ft 492 kts 19°
2026-04-24 03:48 33.92066 139.28075 34948 ft 510 kts 33°
2026-04-24 03:49 33.94553 139.31205 34949 ft 523 kts 48°
2026-04-24 03:49 33.98423 139.38673 34944 ft 529 kts 56°
2026-04-24 03:50 34.02191 139.46299 34948 ft 529 kts 56°
2026-04-24 03:50 34.05985 139.53911 34949 ft 529 kts 56°
2026-04-24 03:51 34.09119 139.61930 34945 ft 532 kts 78°
2026-04-24 03:51 34.09657 139.66272 34948 ft 527 kts 94°
2026-04-24 03:51 34.09440 139.70624 34943 ft 514 kts 109°
2026-04-24 03:51 34.08515 139.74705 34946 ft 496 kts 123°
2026-04-24 03:52 34.07010 139.78346 34945 ft 476 kts 136°
2026-04-24 03:52 34.05054 139.81454 34936 ft 455 kts 148°
2026-04-24 03:52 34.02777 139.83974 34935 ft 434 kts 159°
2026-04-24 03:52 34.00301 139.85892 34933 ft 414 kts 169°
2026-04-24 03:53 33.97720 139.87235 34938 ft 395 kts 179°
2026-04-24 03:53 33.95121 139.88037 34930 ft 377 kts 187°
2026-04-24 03:53 33.92559 139.88348 34926 ft 363 kts 195°
2026-04-24 03:53 33.90086 139.88218 34924 ft 350 kts 202°
2026-04-24 03:54 33.87731 139.87696 34930 ft 338 kts 209°
2026-04-24 03:54 33.83497 139.85662 34923 ft 320 kts 221°
2026-04-24 03:55 33.79990 139.82563 34920 ft 308 kts 232°
2026-04-24 03:55 33.77295 139.78666 34919 ft 301 kts 242°
2026-04-24 03:55 33.76235 139.76541 34924 ft 300 kts 243°
2026-04-24 03:56 33.75164 139.74382 34921 ft 300 kts 243°
2026-04-24 03:56 33.74085 139.72231 34921 ft 300 kts 243°
2026-04-24 03:56 33.73001 139.70081 34922 ft 301 kts 243°
2026-04-24 03:57 33.70825 139.65779 34924 ft 301 kts 243°
2026-04-24 03:57 33.68647 139.61471 34921 ft 302 kts 243°
2026-04-24 03:58 33.66472 139.57164 34923 ft 302 kts 243°
2026-04-24 03:58 33.64507 139.52726 34920 ft 300 kts 249°
2026-04-24 03:58 33.63789 139.50412 34924 ft 300 kts 253°
2026-04-24 03:59 33.63285 139.47981 34922 ft 300 kts 258°
2026-04-24 03:59 33.63035 139.42958 34925 ft 305 kts 268°
2026-04-24 04:00 33.63831 139.37896 34925 ft 315 kts 279°
2026-04-24 04:00 33.65716 139.33030 34926 ft 330 kts 290°
2026-04-24 04:01 33.68745 139.28670 34931 ft 352 kts 303°
2026-04-24 04:01 33.70695 139.26809 34935 ft 365 kts 311°
2026-04-24 04:01 33.72941 139.25236 34933 ft 381 kts 319°
2026-04-24 04:01 33.75459 139.24037 34940 ft 398 kts 327°
2026-04-24 04:02 33.78184 139.23299 34934 ft 416 kts 337°
2026-04-24 04:02 33.81139 139.23093 34945 ft 436 kts 347°
2026-04-24 04:02 33.84232 139.23519 34946 ft 457 kts 359°
2026-04-24 04:02 33.87341 139.24656 34945 ft 478 kts 11°
2026-04-24 04:03 33.90342 139.26553 34943 ft 497 kts 24°
2026-04-24 04:03 33.93068 139.29208 34941 ft 513 kts 39°
2026-04-24 04:03 33.95355 139.32557 34952 ft 524 kts 53°
2026-04-24 04:04 33.99135 139.40118 34953 ft 526 kts 56°
2026-04-24 04:04 34.02889 139.47704 34951 ft 526 kts 56°
2026-04-24 04:05 34.06663 139.55265 34947 ft 526 kts 56°
2026-04-24 04:05 34.08336 139.59116 34948 ft 528 kts 68°
2026-04-24 04:05 34.09355 139.63365 34955 ft 527 kts 84°
2026-04-24 04:05 34.09609 139.67741 34949 ft 519 kts 99°
2026-04-24 04:06 34.09104 139.71992 34950 ft 505 kts 114°
2026-04-24 04:06 34.07935 139.75897 34945 ft 486 kts 128°
2026-04-24 04:06 34.06228 139.79319 34946 ft 466 kts 141°
2026-04-24 04:06 34.04123 139.82166 34941 ft 445 kts 153°
2026-04-24 04:07 34.01745 139.84408 34939 ft 424 kts 164°
2026-04-24 04:07 33.99206 139.86051 34932 ft 404 kts 174°
2026-04-24 04:07 33.96614 139.87120 34930 ft 384 kts 183°
2026-04-24 04:07 33.94042 139.87664 34932 ft 369 kts 191°
2026-04-24 04:08 33.91525 139.87738 34932 ft 355 kts 198°
2026-04-24 04:08 33.89113 139.87390 34920 ft 343 kts 205°
2026-04-24 04:08 33.86842 139.86670 34929 ft 333 kts 212°
2026-04-24 04:09 33.82803 139.84288 34925 ft 316 kts 224°
2026-04-24 04:09 33.79533 139.80898 34925 ft 306 kts 235°
2026-04-24 04:10 33.77102 139.76771 34928 ft 301 kts 243°
2026-04-24 04:10 33.74962 139.72464 34927 ft 302 kts 243°
2026-04-24 04:11 33.71686 139.65977 34924 ft 303 kts 242°
2026-04-24 04:11 33.69497 139.61648 34923 ft 303 kts 242°
2026-04-24 04:12 33.67303 139.57304 34925 ft 304 kts 242°
2026-04-24 04:12 33.65282 139.52861 34923 ft 302 kts 248°
2026-04-24 04:13 33.63995 139.48071 34925 ft 303 kts 258°
2026-04-24 04:13 33.63713 139.43013 34924 ft 307 kts 268°
2026-04-24 04:14 33.64510 139.37917 34932 ft 317 kts 279°
2026-04-24 04:14 33.66432 139.33032 34931 ft 332 kts 291°
2026-04-24 04:15 33.69498 139.28719 34938 ft 354 kts 305°
2026-04-24 04:15 33.71488 139.26880 34937 ft 368 kts 313°
2026-04-24 04:15 33.73765 139.25356 34940 ft 383 kts 321°
2026-04-24 04:16 33.76312 139.24222 34946 ft 399 kts 329°
2026-04-24 04:16 33.79097 139.23563 34945 ft 418 kts 339°
2026-04-24 04:16 33.82066 139.23468 34950 ft 437 kts 350°
2026-04-24 04:16 33.85142 139.24025 34949 ft 457 kts
2026-04-24 04:17 33.88213 139.25305 34948 ft 477 kts 14°
2026-04-24 04:17 33.90176 139.26572 34952 ft 489 kts 23°
2026-04-24 04:17 33.92918 139.29118 34950 ft 508 kts 37°
2026-04-24 04:17 33.95254 139.32389 34954 ft 523 kts 52°
2026-04-24 04:18 33.99041 139.39916 34953 ft 523 kts 56°
2026-04-24 04:18 34.02762 139.47444 34951 ft 523 kts 56°
2026-04-24 04:19 34.06513 139.54965 34952 ft 523 kts 56°
2026-04-24 04:19 34.10697 139.62131 34955 ft 524 kts 44°
2026-04-24 04:20 34.15468 139.68896 34955 ft 536 kts 45°
2026-04-24 04:20 34.20223 139.75890 34954 ft 548 kts 46°
2026-04-24 04:21 34.22637 139.79516 34801 ft 558 kts 46°
2026-04-24 04:21 34.25083 139.83211 34464 ft 566 kts 47°
2026-04-24 04:21 34.27541 139.86940 34049 ft 566 kts 47°
2026-04-24 04:21 34.30001 139.90673 33341 ft 568 kts 47°
2026-04-24 04:22 34.32468 139.94420 32504 ft 570 kts 47°
2026-04-24 04:22 34.34944 139.98181 31659 ft 572 kts 47°
2026-04-24 04:22 34.37430 140.01958 30764 ft 575 kts 47°
2026-04-24 04:22 34.39932 140.05764 29813 ft 579 kts 47°
2026-04-24 04:23 34.42435 140.09580 28977 ft 576 kts 47°
2026-04-24 04:23 34.44877 140.13312 28441 ft 568 kts 47°
2026-04-24 04:23 34.47139 140.17238 27848 ft 565 kts 55°
2026-04-24 04:23 34.49204 140.21258 27260 ft 559 kts 54°
2026-04-24 04:24 34.51257 140.25232 26701 ft 552 kts 54°
2026-04-24 04:24 34.53284 140.29153 26169 ft 545 kts 54°
2026-04-24 04:24 34.55288 140.33032 25623 ft 539 kts 54°
2026-04-24 04:24 34.57266 140.36869 25102 ft 533 kts 54°
2026-04-24 04:25 34.59221 140.40665 24586 ft 527 kts 54°
2026-04-24 04:25 34.61150 140.44417 24094 ft 520 kts 54°
2026-04-24 04:25 34.63056 140.48127 23608 ft 514 kts 54°
2026-04-24 04:25 34.64937 140.51792 23031 ft 508 kts 54°
2026-04-24 04:26 34.66799 140.55418 22465 ft 502 kts 54°
2026-04-24 04:26 34.68605 140.58940 21803 ft 493 kts 55°
2026-04-24 04:26 34.70428 140.62436 20976 ft 484 kts 51°
2026-04-24 04:26 34.72612 140.65464 20176 ft 470 kts 37°
2026-04-24 04:27 34.75219 140.67756 19363 ft 455 kts 23°
2026-04-24 04:27 34.78082 140.69188 18550 ft 439 kts
2026-04-24 04:27 34.81050 140.69710 17653 ft 424 kts 355°
2026-04-24 04:27 34.83968 140.69697 16823 ft 414 kts 353°
2026-04-24 04:28 34.86827 140.69682 16023 ft 409 kts 355°
2026-04-24 04:28 34.89657 140.69801 15242 ft 403 kts 358°
2026-04-24 04:28 34.92442 140.70036 14461 ft 398 kts 360°
2026-04-24 04:28 34.95185 140.70337 13699 ft 393 kts
2026-04-24 04:29 34.97889 140.70666 12861 ft 387 kts
2026-04-24 04:29 35.00516 140.70996 12072 ft 381 kts
2026-04-24 04:29 35.03120 140.71326 11608 ft 367 kts
2026-04-24 04:29 35.05583 140.71644 11490 ft 349 kts
2026-04-24 04:30 35.08018 140.71738 11409 ft 351 kts 352°
2026-04-24 04:30 35.10402 140.71338 11355 ft 339 kts 345°
2026-04-24 04:30 35.12677 140.70810 11242 ft 326 kts 345°
2026-04-24 04:30 35.14850 140.70321 11092 ft 309 kts 345°
2026-04-24 04:31 35.16929 140.69856 10712 ft 300 kts 345°
2026-04-24 04:31 35.18975 140.69394 10190 ft 297 kts 345°
2026-04-24 04:31 35.20987 140.68936 9634 ft 294 kts 345°
2026-04-24 04:31 35.22999 140.68477 9041 ft 292 kts 345°
2026-04-24 04:32 35.24985 140.68025 8499 ft 288 kts 346°
2026-04-24 04:32 35.26950 140.67579 7935 ft 286 kts 346°
2026-04-24 04:32 35.28877 140.67143 7575 ft 276 kts 346°
2026-04-24 04:32 35.30750 140.66718 7278 ft 281 kts 346°
2026-04-24 04:33 35.32668 140.66279 6969 ft 279 kts 347°
2026-04-24 04:33 35.34570 140.65845 6659 ft 276 kts 347°
2026-04-24 04:33 35.36447 140.65417 6357 ft 272 kts 348°
2026-04-24 04:33 35.38294 140.64997 6041 ft 267 kts 348°
2026-04-24 04:34 35.40112 140.64583 5752 ft 264 kts 349°
2026-04-24 04:34 35.41898 140.64177 5581 ft 257 kts 349°
2026-04-24 04:34 35.43654 140.63760 5256 ft 255 kts 346°
2026-04-24 04:34 35.45298 140.63063 5131 ft 245 kts 336°
2026-04-24 04:35 35.46874 140.62174 5050 ft 255 kts 335°
2026-04-24 04:35 35.48464 140.61182 5001 ft 256 kts 332°
2026-04-24 04:35 35.50016 140.60099 5011 ft 256 kts 330°
2026-04-24 04:35 35.51543 140.58992 5103 ft 255 kts 330°
2026-04-24 04:36 35.53058 140.57891 5225 ft 259 kts 330°
2026-04-24 04:36 35.54615 140.56756 5341 ft 258 kts 330°
2026-04-24 04:36 35.56141 140.55643 5324 ft 252 kts 330°
2026-04-24 04:36 35.57623 140.54563 5167 ft 244 kts 330°
2026-04-24 04:37 35.59057 140.53516 4939 ft 236 kts 330°
2026-04-24 04:37 35.60441 140.52507 4657 ft 227 kts 330°
2026-04-24 04:37 35.61768 140.51537 4368 ft 217 kts 330°
2026-04-24 04:37 35.63048 140.50602 4067 ft 210 kts 331°
2026-04-24 04:38 35.64281 140.49702 3813 ft 201 kts 331°
2026-04-24 04:38 35.65435 140.48858 3585 ft 186 kts 331°
2026-04-24 04:38 35.66494 140.48084 3337 ft 169 kts 331°
2026-04-24 04:38 35.67461 140.47376 3124 ft 153 kts 332°
2026-04-24 04:39 35.68323 140.46746 2922 ft 140 kts 332°
2026-04-24 04:39 35.69144 140.46146 2744 ft 136 kts 332°
2026-04-24 04:39 35.69962 140.45549 2555 ft 139 kts 332°
2026-04-24 04:39 35.70785 140.44945 2372 ft 137 kts 333°
2026-04-24 04:40 35.71603 140.44348 2188 ft 137 kts 332°
2026-04-24 04:40 35.72428 140.43743 1997 ft 137 kts 333°
2026-04-24 04:40 35.73246 140.43145 1804 ft 136 kts 333°
2026-04-24 04:40 35.74067 140.42545 1636 ft 138 kts 333°
2026-04-24 04:41 35.74884 140.41944 1439 ft 136 kts 332°
2026-04-24 04:41 35.75460 140.41515 1206 ft 139 kts 332°
2026-04-24 04:41 35.76277 140.40880 823 ft 139 kts 330°
2026-04-24 04:41 35.77095 140.40247 480 ft 138 kts 332°
2026-04-24 04:42 35.77910 140.39685 312 ft 134 kts 335°
2026-04-24 04:42 35.78716 140.39109 175 ft 137 kts 334°
2026-04-24 04:42 35.79459 140.38577 143 ft 93 kts 329°
2026-04-24 04:42 35.79809 140.38320 144 ft 45 kts 329°
2026-04-24 04:43 35.80048 140.38115 146 ft 35 kts 314°
2026-04-24 04:43 35.80142 140.37899 143 ft 14 kts 250°
2026-04-24 04:43 35.80052 140.37892 143 ft 17 kts 149°
2026-04-24 04:43 35.79931 140.37979 143 ft 24 kts 149°
2026-04-24 04:44 35.79769 140.38096 143 ft 30 kts 150°
2026-04-24 04:44 35.79571 140.38238 143 ft 35 kts 150°
2026-04-24 04:44 35.79354 140.38398 143 ft 37 kts 153°
2026-04-24 04:44 35.79130 140.38554 144 ft 37 kts 148°
2026-04-24 04:45 35.78962 140.38776 144 ft 35 kts 144°
2026-04-24 04:45 35.78738 140.38882 144 ft 35 kts 162°
2026-04-24 04:45 35.78538 140.39025 143 ft 33 kts 140°
2026-04-24 04:45 35.78330 140.39151 143 ft 36 kts 165°
2026-04-24 04:46 35.78141 140.39182 143 ft 20 kts 214°
2026-04-24 04:46 35.78070 140.39106 143 ft 9 kts 165°
2026-04-24 04:46 35.77963 140.39202 143 ft 25 kts 121°
2026-04-24 04:46 35.77859 140.39454 143 ft 43 kts 124°
2026-04-24 04:47 35.77626 140.39644 143 ft 36 kts 149°
2026-04-24 04:47 35.77434 140.39755 143 ft 15 kts 194°
2026-04-24 04:47 35.77389 140.39653 143 ft 19 kts 272°
2026-04-24 04:47 35.77308 140.39535 143 ft 21 kts 205°
2026-04-24 04:48 35.77166 140.39456 143 ft 23 kts 205°
2026-04-24 04:48 35.77014 140.39371 143 ft 25 kts 198°
2026-04-24 04:48 35.76928 140.39406 144 ft 14 kts 156°
2026-04-24 04:48 35.76816 140.39370 143 ft 22 kts 205°
2026-04-24 04:49 35.76652 140.39282 144 ft 29 kts 204°
2026-04-24 04:49 35.76513 140.39202 144 ft 16 kts 212°
2026-04-24 04:49 35.76519 140.39107 144 ft 12 kts 295°
2026-04-24 04:49 35.76527 140.39085 144 ft 1 kts 294°
2026-04-24 04:50 35.76528 140.39084 144 ft 0 kts 294°
2026-04-24 04:57 35.76128 140.40998 903 ft 138 kts 330°
2026-04-24 04:57 35.76943 140.40361 545 ft 138 kts 331°
2026-04-24 04:57 35.77761 140.39785 344 ft 133 kts 335°
2026-04-24 04:58 35.78575 140.39209 204 ft 137 kts 334°
2026-04-24 04:58 35.79359 140.38651 145 ft 108 kts 329°
2026-04-24 04:58 35.78833 140.39026 159 ft 136 kts 334°
2026-04-24 04:58 35.79534 140.38523 143 ft 80 kts 329°